Wind_Speed
7 7 7 8 6 7 6 7 7 3 4 11 11 18 16 14 20 16 16 17 21 17 19 22 22 22 21 23 23 21 17 17 17 18 18 16 13 18
6 7 8 7 7 5 6 6 8 11 3 15 16 16 13 11 16 15 13 14 16 17 20 22 25 26 27 25 26 25 23 21 18 16 17 17 18 17
8 9 9 10 9 9 6 8 8 10 8 13 14 14 12 15 15 13 12 14 14 17 19 20 23 26 27 27 27 27 25 24 22 19 15 13 14 18
8 8 9 8 9 10 7 9 10 10 12 13 13 11 15 17 14 14 11 9 9 12 14 20 24 24 27 28 28 29 29 26 25 22 15 13 11 9
8 9 10 9 8 8 11 10 12 11 13 12 13 13 16 20 18 16 11 12 8 9 10 14 20 26 26 27 27 28 29 28 25 25 23 19 18 15
8 7 9 8 7 7 9 11 11 12 14 13 12 14 19 19 15 17 13 13 10 9 13 10 16 20 25 25 28 28 29 28 25 25 26 26 26 25
9 7 10 8 7 11 8 11 12 14 15 14 14 13 17 18 17 18 15 14 8 19 13 13 13 20 23 25 27 28 29 29 28 25 26 28 29 29
9 7 7 7 6 8 11 12 14 15 14 15 14 13 15 18 19 19 15 14 4 18 10 15 15 14 20 23 24 25 26 29 29 28 25 26 28 30
8 6 5 6 4 7 7 9 10 13 12 11 12 12 12 19 19 20 18 17 6 19 7 12 16 12 16 24 21 24 24 26 29 27 27 24 26 28
7 7 4 7 9 8 8 9 9 12 15 13 13 12 13 17 17 15 16 5 12 21 12 9 20 16 14 24 22 22 23 23 25 27 27 25 24 26
5 6 4 9 9 7 8 9 8 9 7 9 9 8 11 16 19 15 24 18 8 13 21 10 18 15 16 22 25 21 24 22 22 23 25 25 23 22
4 6 8 9 10 9 8 8 8 11 11 9 8 10 11 14 18 23 21 17 13 10 19 12 19 17 5 16 26 24 26 24 22 23 22 23 24 27
8 5 6 8 10 10 10 12 9 9 7 7 9 10 12 13 13 17 16 22 20 12 14 12 17 18 10 9 14 25 21 25 25 25 23 22 23 26
8 4 4 7 10 9 10 8 7 6 6 8 10 11 12 13 13 10 11 12 17 21 16 16 13 18 16 11 13 23 19 23 26 27 26 19 22 19
10 5 5 9 9 6 8 7 7 8 8 9 10 10 9 11 12 13 11 8 10 15 19 15 12 14 15 16 14 19 22 17 26 28 25 20 23 18
9 8 8 9 7 9 6 6 10 9 8 8 7 8 9 9 12 12 12 9 10 10 14 15 7 8 13 13 17 18 20 16 24 26 22 21 23 19
9 8 6 4 5 5 4 5 4 5 6 7 7 8 9 10 11 11 11 11 10 11 14 18 15 5 11 11 12 17 19 20 22 24 20 21 20 22
9 8 7 5 6 5 6 5 4 5 5 6 6 7 9 9 9 11 12 13 12 12 13 14 17 17 7 7 14 17 18 19 21 20 20 20 19 21
8 9 9 8 6 6 5 5 4 4 4 5 5 4 7 7 8 9 10 11 12 11 11 12 14 13 6 2 9 13 14 14 17 18 18 19 19 23
8 9 9 8 8 7 6 6 5 4 4 4 4 4 5 6 7 9 9 9 11 10 10 11 12 13 10 9 11 10 12 13 17 17 17 15 15 19
9 10 10 10 9 8 9 8 7 7 6 4 3 2 3 5 5 6 7 8 10 10 10 11 13 13 12 11 11 8 15 9 17 15 18 14 16 14
12 11 11 11 10 10 9 7 6 5 4 4 3 1 2 3 2 4 5 8 9 10 10 12 14 16 15 13 13 14 13 17 17 13 12 8 15 14
12 13 13 13 13 12 11 10 9 8 8 6 4 3 1 1 2 3 5 7 8 10 10 13 14 15 15 15 17 16 15 18 17 14 15 16 16 21
Wind_Direction
43 36 21 20 8 350 360 346 337 314 311 358 357 5 10 5 8 9 356 5 3 25 35 36 34 33 27 23 20 16 359 341 322 305 297 281 270 254
49 39 34 10 353 353 346 336 324 318 287 335 343 345 6 14 11 6 7 8 34 42 44 44 44 42 39 32 25 21 17 8 356 331 307 293 278 266
49 38 27 8 360 358 354 341 342 331 324 324 328 337 21 33 20 8 11 19 30 45 45 43 43 42 39 35 29 26 23 23 16 357 341 332 300 277
49 47 35 19 7 359 360 354 347 338 334 312 335 350 38 30 17 12 18 33 22 31 35 45 44 42 40 37 33 31 30 28 26 22 11 12 360 332
57 58 37 32 16 353 2 24 1 339 329 339 328 23 32 23 11 6 17 19 29 19 34 52 46 44 42 38 33 32 31 31 31 32 39 42 45 47
70 67 39 31 23 21 19 27 8 357 357 1 12 23 29 14 12 358 1 19 30 29 46 45 51 43 40 37 35 34 34 36 38 39 39 47 52 51
74 65 61 45 41 38 45 45 36 27 22 5 28 22 22 8 0 342 353 353 37 20 41 41 50 40 44 37 35 33 33 36 39 45 48 50 53 53
78 65 54 42 44 41 50 54 46 42 34 22 39 25 17 2 348 337 347 350 10 2 23 31 39 62 46 45 33 33 31 32 37 41 49 54 55 56
87 64 58 26 69 66 58 59 53 47 52 50 50 34 13 1 347 335 335 335 72 13 32 33 27 38 57 45 39 32 30 32 34 38 46 54 56 55
95 77 50 27 44 59 82 69 47 44 53 64 58 41 24 9 2 347 347 343 80 36 37 32 9 8 57 42 39 33 31 32 32 35 36 43 51 52
67 62 58 55 45 59 71 80 55 75 36 37 53 38 32 25 22 32 20 20 32 36 27 22 4 6 61 40 33 31 29 30 28 34 36 37 42 45
122 74 64 59 55 58 105 98 85 57 56 56 55 44 36 34 35 43 45 31 28 25 13 20 9 11 3 30 29 27 31 29 28 23 37 36 37 42
153 121 72 66 66 61 72 85 81 54 46 56 55 48 43 38 25 37 39 52 57 38 18 27 18 18 32 20 21 22 29 30 30 35 34 39 40 44
157 193 148 88 69 64 69 64 33 63 63 60 55 45 35 29 27 19 24 41 50 47 45 46 38 32 34 24 17 10 25 28 24 23 25 38 40 42
165 180 130 96 81 51 61 52 82 71 67 61 51 37 32 33 37 42 38 33 57 41 35 34 38 46 47 44 24 18 13 18 21 17 21 34 37 38
154 143 109 95 100 76 69 55 66 77 68 56 44 41 42 43 38 34 35 51 48 51 37 25 23 22 59 53 42 31 24 20 10 15 14 27 35 31
150 139 137 129 137 142 106 94 81 71 65 54 44 41 41 37 40 31 32 33 37 41 40 27 33 7 63 56 44 37 25 18 11 10 16 15 22 24
179 194 165 163 153 147 142 127 94 80 67 61 50 40 39 32 28 35 26 24 25 25 36 37 27 23 23 57 34 32 23 18 12 8 12 8 6 1
173 179 169 163 162 151 147 132 133 112 85 78 65 57 38 36 31 38 39 19 6 15 25 33 41 20 358 6 352 9 19 14 12 6 3 1 356 348
191 180 174 171 174 167 160 154 146 132 115 98 85 55 55 46 40 27 40 18 353 3 11 20 23 8 336 339 325 357 355 4 3 353 346 348 347 349
196 187 185 181 178 174 175 171 167 177 161 127 106 80 61 39 46 23 18 3 3 11 357 3 352 341 333 325 323 340 349 345 345 336 339 343 344 346
194 194 189 186 186 189 191 187 187 162 149 170 166 187 196 43 33 9 9 355 356 360 345 350 348 343 339 338 336 338 336 344 344 337 348 348 346 339
203 198 197 194 194 191 195 194 195 193 194 194 185 194 233 98 345 344 348 349 353 343 351 352 343 342 339 336 334 339 343 337 333 344 343 334 332 329
Height
825 823 822 822 823 823 819 819 821 821 817 811 812 810 808 808 805 805 803 798 794 791 785 782 779 775 773 772 770 765 762 760 758 756 755 754 754 757
825 825 822 824 823 821 821 819 820 819 818 815 813 811 809 807 806 806 804 800 797 793 789 787 782 778 775 774 772 767 763 761 758 755 753 752 752 754
823 824 824 825 825 825 820 819 819 818 816 814 813 812 808 805 806 807 804 800 800 796 793 790 785 782 778 777 775 770 766 763 758 754 751 749 749 748
823 823 823 821 825 827 821 819 818 817 815 813 812 810 808 806 807 807 804 801 802 799 796 792 789 783 781 779 777 773 769 764 760 756 750 747 745 742
826 826 826 822 826 827 822 818 818 816 814 812 811 809 808 807 807 806 805 803 804 801 796 793 791 787 784 784 783 778 772 768 764 760 756 752 749 747
826 827 826 825 827 826 823 820 818 816 814 811 810 810 810 811 810 808 806 804 804 800 796 796 793 791 789 788 786 782 777 774 769 765 760 756 753 752
828 826 828 829 828 827 823 820 818 817 815 814 813 814 814 813 811 808 806 804 803 800 797 798 795 792 793 794 787 785 782 779 774 769 766 763 760 758
826 830 830 829 829 826 823 822 821 820 819 818 817 818 817 816 812 810 807 803 800 800 799 799 797 797 797 794 794 791 789 784 777 774 772 769 766 764
826 830 831 829 826 825 824 823 823 822 822 821 821 821 820 818 814 810 806 804 803 802 800 801 800 799 798 797 796 794 793 787 781 779 777 775 773 770
828 831 830 828 826 824 823 824 824 824 823 823 823 822 821 819 814 811 806 801 803 803 802 802 801 799 798 797 797 797 793 789 787 785 782 778 775 773
830 831 830 828 826 825 824 824 825 825 825 825 824 825 823 821 816 810 806 805 805 808 806 805 804 801 800 799 800 798 795 792 791 789 787 783 779 777
829 830 830 828 827 825 824 825 827 826 826 826 827 826 825 823 820 816 814 812 811 811 812 810 807 804 802 803 803 802 800 797 794 792 792 788 783 782
829 829 829 828 827 827 825 826 827 826 828 828 828 827 826 824 822 820 819 817 816 816 815 812 811 808 807 807 808 806 804 802 799 796 792 791 788 785
827 828 829 828 828 828 828 828 829 828 829 829 829 828 827 826 824 823 821 820 819 819 818 816 815 814 812 811 810 808 805 803 800 797 795 795 793 791
825 827 828 827 828 830 830 830 830 829 830 830 830 829 829 828 826 824 824 822 822 822 821 819 818 817 816 815 815 812 808 806 803 801 800 798 796 793
825 827 828 827 830 830 831 832 831 831 831 831 831 830 830 829 828 826 825 825 825 825 824 821 819 818 817 817 816 815 814 812 809 806 804 801 800 796
826 827 828 828 829 831 832 833 833 833 832 832 832 831 831 829 829 828 827 827 826 825 824 822 821 819 819 818 817 816 816 814 812 809 806 804 802 800
824 825 826 827 829 831 832 833 834 833 833 833 832 832 832 831 830 830 829 828 827 826 825 824 823 822 821 821 819 818 816 815 813 811 809 807 804 802
822 824 825 826 828 829 831 832 833 833 833 833 833 833 833 833 832 831 831 830 829 828 827 826 825 825 823 824 822 819 817 815 813 811 809 807 805 802
820 822 824 825 827 828 830 831 833 833 834 834 834 834 833 834 834 833 832 832 831 829 828 827 826 826 824 823 821 820 818 815 813 810 808 806 805 802
818 820 822 823 825 826 828 830 831 832 833 834 834 834 834 834 834 834 833 833 831 830 829 828 827 825 823 822 820 818 816 815 813 810 807 804 802 798
816 818 819 821 823 824 826 828 830 831 832 833 833 833 834 834 834 834 833 833 832 831 829 828 826 824 822 821 819 817 815 813 811 809 807 805 803 799
813 815 816 818 820 822 824 826 828 829 830 831 832 832 832 833 833 833 832 832 831 830 829 827 826 824 823 821 818 816 814 811 809 807 806 804 802 800